Location: Cheyres
(46.8153°N, 6.7877°E)
Time: 06:56:35
(UTC+00:00)

Tiangong - Visible Passes

Search period start: 27 February 2024 00:00
Search period end: 08 March 2024 00:00
Orbit: 375 x 385 km, 41.5° (Epoch: 26 February)

Date Brightness Start Highest point End Pass type
(mag) Time Alt. Az. Time Alt. Az. Time Alt. Az.
29 Feb -0.2 18:49:12 10° SSW 18:51:09 18° S 18:51:09 18° S visible
01 Mar 0.2 17:48:51 10° S 17:50:24 13° SSE 17:51:59 10° SE visible
01 Mar 0.1 19:23:50 10° SW 19:25:05 19° SW 19:25:05 19° SW visible
02 Mar -0.6 18:22:49 10° SW 18:25:22 23° SSE 18:26:47 17° SE visible
02 Mar 1.2 19:58:53 10° WSW 19:58:54 10° WSW 19:58:54 10° WSW visible
03 Mar -1.0 18:57:34 10° WSW 19:00:21 30° S 19:00:28 30° S visible
04 Mar -0.7 17:56:17 10° SW 17:58:59 27° S 18:01:42 10° ESE visible
04 Mar 0.1 19:32:35 10° WSW 19:34:02 20° SW 19:34:02 20° SW visible
05 Mar -0.8 18:31:04 10° WSW 18:33:51 30° S 18:35:26 19° SE visible
06 Mar -0.4 19:06:04 10° WSW 19:08:35 23° SSW 19:08:52 22° S visible
07 Mar -0.6 18:04:19 10° WSW 18:07:01 27° S 18:09:44 10° SE visible
07 Mar 0.7 19:41:39 10° SW 19:42:16 12° SW 19:42:16 12° SW visible
